Location: Hlohovi?ky
(49.8934°N, 13.6739°E)
Time: 06:03:55
(UTC+00:00)

Cosmos 1980 Rocket - Pass Details

Date: 19 May 2025
Orbit: 829 x 848 km, 71.0° (Epoch: 22 June)

Event Time Altitude Azimuth Distance (km) Brightness Sun altitude
Rises 22:30:31 0° 319° (NW) 3,382 6.3 -19.8°
Reaches altitude 10° 22:33:46 10° 300° (WNW) 2,445 5.1 -19.9°
Maximum altitude 22:37:15 17° 261° (W) 1,983 4.1 -19.9°
Enters shadow 22:39:26 14° 235° (SW) 2,171 4.0 -20.0°
